User: anonymous   Login
Location: Franzen
(48.6167°N, 15.3833°E)
Time: 04:17:22
(UTC+00:00)
Language:

Cosmos 1655 Rocket - Orbit

View from above orbital plane
View from above orbital plane
View from above satellite
View from above satellite

Ground track
Ground track

The orbit data is extracted from the following two-line orbital elements,

1 15752U 85041B   21169.45649526 -.00000018  00000-0 -35599-4 0  9994
2 15752  82.9489 307.8843 0024657  26.6419 333.5997 13.73119087806280
Epoch (UTC): 18 June 2021 10:57:21
Eccentricity: 0.0024657
inclination: 82.9489°
perigee height: 970 km
apogee height: 1006 km
right ascension of ascending node: 307.8843°
argument of perigee: 26.6419°
revolutions per day: 13.73119087
mean anomaly at epoch: 333.5997°
orbit number at epoch: 80628

The dashed part of the orbit path shows where the satellite is in the earth's shadow,  

DLR